Location: Dvur Kralove nad Labem
(50.4330°N, 15.8170°E)
Time: 15:05:13
(UTC+02:00)

ISS - Pass Details

Date: 17 May 2018
Orbit: 402 x 407 km, 51.6° (Epoch: 24 May)

Event Time Altitude Azimuth Distance (km) Brightness Sun altitude
Exits shadow 01:06:30 28° 87° (E) 787 -2.4 -20.2°
Drops below altitude 10° 01:08:15 10° 77° (ENE) 1,458 -0.8 -20.2°
Sets 01:10:20 0° 74° (ENE) 2,319 0.3 -20.2°
